User: anonymous
Location: Montr�al
(45.5000°N, 73.5830°W)
Time: 19:48:34
(UTC-04:00)
Language:

Cosmos 1470 Rocket - Orbit

View from above orbital plane
View from above orbital plane
View from above satellite
View from above satellite

Ground track
Ground track

The orbit data is extracted from the following two-line orbital elements,

1 14148U 83061B   14245.41121584  .00000240  00000-0  26627-4 0  7337
2 14148 082.5207 143.5400 0023378 090.9507 321.3391 14.82706069683848
Epoch (UTC): 02 September 2014 09:52:09
Eccentricity: 0.0023378
inclination: 82.5207°
perigee height: 604 km
apogee height: 637 km
right ascension of ascending node: 143.5400°
argument of perigee: 90.9507°
revolutions per day: 14.82706069
mean anomaly at epoch: 321.3391°
orbit number at epoch: 68384

The dashed part of the orbit path shows where the satellite is in the earth's shadow,  

DLR